Home > Weather > Hohenems > Past weeks

Flag for Austria Past Weather in Hohenems, Vorarlberg, Austria — Yesterday and Last 2 Weeks

Now
41 °F

Quite cool.


Feels Like: 41 °F
Forecast: 52 / 79 °F
Wind: 1 mph from North

Location: Feldkirch

Current Time: May 25, 2016 at 7:24:44 AM

Latest Report: May 25, 2016 at 6:00 AM


Visibility: N/A

Pressure: 29.99 "Hg

Humidity: 97%

Dew Point: 40 °F

Location of HohenemsLocation

Past Weather in Hohenems — Graph

°F

Hohenems Temperature Yesterday

Maximum temperature yesterday: 59 °F (at 4:00 PM)
Minimum temperature yesterday: 44 °F (at 4:00 AM)
Average temperature yesterday: 50 °F

High & Low Weather Summary for the Past Weeks

 TemperatureHumidityPressure
High84 °F (May 22, 1:00 PM)99% (May 14, 7:00 AM)30.22 "Hg (May 14, 7:00 AM)
Low41 °F (May 16, 6:00 AM)20% (May 22, 2:00 PM)29.44 "Hg (May 11, 8:00 PM)
Average55 °F74%29.90 "Hg
* Reported May 10 6:00 AM — May 25 6:00 AM, Hohenems, Weather by CustomWeather, © 2016

Note: Actual official high and low records may vary slightly from our data, if they occured in-between our weather recording intervals... More about our weather records

Advertising

Hohenems Weather History for the Previous 24 Hours

Scroll right to see more
 ConditionsComfort  
Time TempWeatherWind HumidityBarometerVisibility
6:00 AM
Wed, May 25
41 °FQuite cool.1 mph97%29.99 "HgN/A
5:00 AM42 °FQuite cool.1 mph97%29.98 "HgN/A
4:00 AM43 °FQuite cool.No wind96%29.98 "HgN/A
3:00 AM44 °FQuite cool.1 mph95%29.98 "HgN/A
2:00 AM45 °FCool.No wind94%29.99 "HgN/A
1:00 AM46 °FCool.No wind93%29.99 "HgN/A
12:00 AM49 °FPassing clouds.1 mph87%29.98 "Hg2 mi
11:00 PM
Tue, May 24
49 °FCool.2 mph90%29.98 "HgN/A
10:00 PM49 °FCool.1 mph86%29.97 "HgN/A
9:00 PM52 °FCool.1 mph78%29.96 "HgN/A
8:00 PM54 °FCool.1 mph73%29.96 "HgN/A
7:00 PM56 °FCool.2 mph73%29.95 "HgN/A
6:00 PM56 °FPassing clouds.1 mph73%29.95 "Hg2 mi
5:00 PM58 °FCool.1 mph69%29.95 "HgN/A
4:00 PM59 °FCool.1 mph64%29.95 "HgN/A
3:00 PM57 °FFog.1 mph75%29.98 "HgN/A
2:00 PM56 °FCool.1 mph66%29.98 "HgN/A
1:00 PM54 °FCool.1 mph70%30.00 "HgN/A
12:00 PM53 °FCool.1 mph77%30.02 "HgN/A
11:00 AM50 °FOvercast.1 mph85%30.03 "Hg6 mi
10:00 AM47 °FCool.No wind86%30.03 "HgN/A
9:00 AM46 °FCool.1 mph88%30.04 "HgN/A
8:00 AM45 °FQuite cool.No wind90%30.04 "HgN/A
7:00 AM44 °FLight rain. Overcast.2 mph90%30.03 "Hg6 mi
Weather by CustomWeather, © 2016

See weather overviewHow to use our weather pages